EW7075 Weather Reports


time (UTC)temp
C
wind
direction
speed
KPH
gust
KPH
rain 1hr
cm
rain 24hr
cm
rain mn
cm
humidity
%
barometer
mb
20260507192101 25 141 0.0 0.0 0.00 0.00 0.00 69 1005.6
20260507191558 25 138 0.0 0.0 0.00 0.00 0.00 64 1005.8
20260507191105 25 218 0.0 0.0 0.00 0.00 0.00 65 1005.8
20260507190558 26 218 0.0 0.0 0.00 0.00 0.00 65 1005.8
20260507190058 26 222 0.0 0.0 0.00 0.00 0.00 59 1005.8
20260507185600 26 27 0.0 0.0 0.00 0.00 0.00 58 1005.7
20260507185058 26 201 0.0 0.0 0.00 0.00 0.00 53 1005.8
20260507184557 26 206 0.0 0.0 0.00 0.00 0.00 57 1005.9
20260507184058 26 171 0.0 0.0 0.00 0.00 0.00 53 1005.9
20260507183602 26 202 0.0 0.0 0.00 0.00 0.00 56 1005.9
20260507182559 26 208 0.0 0.0 0.00 0.00 0.00 60 1005.9
20260507182056 26 209 0.0 0.0 0.00 0.00 0.00 52 1006.0
20260507181558 26 174 0.0 0.0 0.00 0.00 0.00 52 1006.0
20260507181107 26 11 0.0 0.0 0.00 0.00 0.00 52 1005.9
20260507180057 26 183 0.0 0.0 0.00 0.00 0.00 53 1005.9
20260507175559 26 171 0.0 0.0 0.00 0.00 0.00 50 1005.9
20260507175101 26 237 0.0 0.0 0.00 0.00 0.00 51 1006.1
20260507174556 26 176 0.0 0.0 0.00 0.00 0.00 51 1005.9
20260507174058 26 187 0.0 0.0 0.00 0.00 0.00 53 1006.0
20260507173558 26 197 0.0 0.0 0.00 0.00 0.00 53 1005.9
20260507172558 27 197 0.0 0.0 0.00 0.00 0.00 53 1006.0
20260507172104 27 187 0.0 0.0 0.00 0.00 0.00 52 1006.3
20260507171558 27 210 0.0 0.0 0.00 0.00 0.00 55 1006.4
20260507171102 27 207 0.0 0.0 0.00 0.00 0.00 53 1006.4
20260507170603 27 197 0.0 0.0 0.00 0.00 0.00 55 1006.4
20260507170059 27 206 0.0 0.0 0.00 0.00 0.00 52 1006.6
20260507165559 27 187 0.0 0.0 0.00 0.00 0.00 54 1006.7
20260507165102 27 174 0.0 0.0 0.00 0.00 0.00 53 1006.8
20260507164600 27 213 0.0 0.0 0.00 0.00 0.00 52 1007.0
20260507164104 27 176 0.0 0.0 0.00 0.00 0.00 52 1007.0
20260507163558 27 201 0.0 0.0 0.00 0.00 0.00 50 1006.9
20260507163058 27 192 0.0 0.0 0.00 0.00 0.00 50 1006.8
20260507162558 27 207 0.0 0.0 0.00 0.00 0.00 51 1006.8
20260507162056 27 214 0.0 0.0 0.00 0.00 0.00 53 1006.9
20260507161603 27 222 0.0 0.0 0.00 0.00 0.00 51 1007.1
20260507161101 27 214 0.0 0.0 0.00 0.00 0.00 52 1007.1
20260507160601 27 145 0.0 0.0 0.00 0.00 0.00 51 1007.2
20260507160057 27 159 0.0 0.0 0.00 0.00 0.00 51 1007.2
20260507155601 27 209 0.0 0.0 0.00 0.00 0.00 52 1007.0
20260507155058 27 211 0.0 0.0 0.00 0.00 0.00 55 1007.2
20260507154556 27 187 0.0 0.0 0.00 0.00 0.00 54 1007.2
20260507154103 27 170 0.0 0.0 0.00 0.00 0.00 58 1007.3
20260507153600 26 197 0.0 0.0 0.00 0.00 0.00 57 1007.3
20260507152557 26 273 0.0 0.0 0.00 0.00 0.00 58 1007.6
20260507151558 26 205 0.0 0.0 0.00 0.00 0.00 60 1007.7
20260507151103 26 284 0.0 0.0 0.00 0.00 0.00 60 1007.8
20260507150603 26 207 0.0 0.0 0.00 0.00 0.00 61 1007.8
20260507150059 26 192 0.0 0.0 0.00 0.00 0.00 62 1007.9
20260507145611 25 236 0.0 0.0 0.00 0.00 0.00 63 1008.4
20260507144602 25 197 0.0 0.0 0.00 0.00 0.00 62 1008.5
20260507143559 25 192 0.0 0.0 0.00 0.00 0.00 62 1008.8
20260507143101 25 220 0.0 0.0 0.00 0.00 0.00 65 1009.0
20260507142058 25 197 0.0 0.0 0.00 0.00 0.00 63 1009.3
20260507140558 25 209 0.0 0.0 0.00 0.00 0.00 64 1009.8
20260507140059 25 205 0.0 0.0 0.00 0.00 0.00 66 1010.0
20260507135603 25 183 0.0 0.0 0.00 0.00 0.00 67 1010.2
20260507135059 25 197 0.0 0.0 0.00 0.00 0.00 65 1010.3
20260507134101 25 222 0.0 0.0 0.00 0.00 0.00 67 1010.5
20260507133601 24 178 0.0 0.0 0.00 0.00 0.00 68 1010.6
20260507133058 24 197 0.0 0.0 0.00 0.00 0.00 68 1010.8
20260507132559 24 162 0.0 0.0 0.00 0.00 0.00 66 1010.9
20260507132101 24 181 0.0 0.0 0.00 0.00 0.00 68 1010.9
20260507131559 23 192 0.0 0.0 0.00 0.00 0.00 68 1010.8
20260507131107 23 211 0.0 0.0 0.00 0.00 0.00 67 1011.2
20260507130601 23 192 0.0 0.0 0.00 0.00 0.00 68 1011.2
20260507130103 23 165 0.0 0.0 0.00 0.00 0.00 71 1011.3
20260507125600 23 213 0.0 0.0 0.00 0.00 0.00 72 1011.4
20260507125057 22 197 0.0 0.0 0.00 0.00 0.00 71 1011.5
20260507124558 22 219 0.0 0.0 0.00 0.00 0.00 71 1011.6
20260507124101 22 220 0.0 0.0 0.00 0.00 0.00 75 1011.8
20260507123602 22 219 0.0 0.0 0.00 0.00 0.00 72 1011.9
20260507123101 22 214 0.0 0.0 0.00 0.00 0.00 72 1012.0
20260507122559 22 243 0.0 0.0 0.00 0.00 0.00 74 1012.1
20260507121557 22 209 0.0 0.0 0.00 0.00 0.00 77 1012.0
20260507121104 22 209 0.0 0.0 0.00 0.00 0.00 76 1012.0
20260507120601 22 207 0.0 0.0 0.00 0.00 0.00 78 1011.9
20260507120058 22 207 0.0 0.0 0.00 0.00 0.00 78 1012.1
20260507115057 22 207 0.0 0.0 0.00 0.00 0.00 75 1011.9
20260507114557 22 206 0.0 0.0 0.00 0.00 0.00 76 1012.0
20260507114057 22 206 0.0 0.0 0.00 0.00 0.00 74 1011.9
20260507113557 22 211 0.0 0.0 0.00 0.00 0.00 77 1012.0
20260507113057 22 209 0.0 0.0 0.00 0.00 0.00 75 1011.9
20260507112558 22 209 0.0 0.0 0.00 0.00 0.00 75 1011.9
20260507112101 22 209 0.0 0.0 0.00 0.00 0.00 73 1011.9
20260507111600 22 228 0.0 0.0 0.00 0.00 0.00 74 1011.7
20260507110557 22 204 0.0 0.0 0.00 0.00 0.00 74 1011.3
20260507110059 22 206 0.0 0.0 0.00 0.00 0.00 73 1011.3
20260507105057 22 219 0.0 0.0 0.00 0.00 0.00 73 1011.2
20260507104557 22 205 0.0 0.0 0.00 0.00 0.00 74 1011.4
20260507104104 22 208 0.0 0.0 0.00 0.00 0.00 73 1011.1
20260507103601 22 197 0.0 0.0 0.00 0.00 0.00 73 1011.2
20260507103100 22 178 0.0 0.0 0.00 0.00 0.00 74 1011.2
20260507102557 22 236 0.0 0.0 0.00 0.00 0.00 74 1011.1
20260507102057 22 233 0.0 0.0 0.00 0.00 0.00 74 1011.1
20260507101056 22 197 0.0 0.0 0.00 0.00 0.00 74 1011.0
20260507100559 22 197 0.0 0.0 0.00 0.00 0.00 74 1011.2
20260507100058 22 232 0.0 0.0 0.00 0.00 0.00 73 1011.1
20260507095059 22 160 0.0 0.0 0.00 0.00 0.00 74 1011.1
20260507094558 22 197 0.0 0.0 0.00 0.00 0.00 74 1011.3
20260507094056 22 230 0.0 0.0 0.00 0.00 0.00 73 1011.4
20260507093556 22 206 0.0 0.0 0.00 0.00 0.00 73 1011.3
20260507093100 22 235 0.0 0.0 0.00 0.00 0.00 74 1011.3
20260507092558 22 344 0.0 0.0 0.00 0.00 0.00 74 1011.2
20260507092104 22 197 0.0 0.0 0.00 0.00 0.00 73 1011.3
20260507091556 22 197 0.0 0.0 0.00 0.00 0.00 73 1011.3
20260507091105 22 34 0.0 0.0 0.00 0.00 0.00 73 1011.3
20260507090602 22 187 0.0 0.0 0.00 0.00 0.00 73 1011.1
20260507090100 22 226 0.0 0.0 0.00 0.00 0.00 73 1011.1
20260507085559 22 178 0.0 0.0 0.00 0.00 0.00 72 1011.0
20260507085100 22 207 0.0 0.0 0.00 0.00 0.00 73 1010.9
20260507084600 22 222 0.0 0.0 0.00 0.00 0.00 73 1011.0
20260507084103 22 180 0.0 0.0 0.00 0.00 0.00 72 1011.0
20260507083556 22 212 0.0 0.0 0.00 0.00 0.00 72 1011.1
20260507083102 22 74 0.0 0.0 0.00 0.00 0.00 72 1011.2
20260507082555 22 175 0.0 0.0 0.00 0.00 0.00 72 1011.1
20260507082057 22 204 0.0 0.0 0.00 0.00 0.00 72 1011.0
20260507081600 22 203 0.0 0.0 0.00 0.00 0.00 73 1011.1
20260507081103 22 197 0.0 0.0 0.00 0.00 0.00 72 1011.0
20260507080559 22 220 0.0 0.0 0.00 0.00 0.00 72 1010.9
20260507075558 22 220 0.0 0.0 0.00 0.00 0.00 72 1011.2
20260507075055 22 187 0.0 0.0 0.00 0.00 0.00 74 1011.3
20260507074559 22 205 0.0 0.0 0.00 0.00 0.00 73 1011.3
20260507074101 22 192 0.0 0.0 0.00 0.00 0.00 74 1011.3
20260507073555 22 203 0.0 0.0 0.00 0.00 0.00 74 1011.6
20260507072558 22 223 0.0 0.0 0.00 0.00 0.00 76 1011.7
20260507071555 22 216 0.0 0.0 0.00 0.00 0.00 76 1012.0
20260507071106 21 214 0.0 0.0 0.00 0.00 0.00 78 1012.0
20260507070600 21 231 0.0 0.0 0.00 0.00 0.00 77 1012.0
20260507065559 21 197 0.0 0.0 0.00 0.00 0.00 81 1012.2
20260507064602 21 197 0.0 0.0 0.00 0.00 0.00 82 1012.5
20260507064056 21 197 0.0 0.0 0.00 0.00 0.00 84 1012.6
20260507063056 20 179 0.0 0.0 0.00 0.00 0.00 82 1012.6
20260507062559 20 223 0.0 0.0 0.00 0.00 0.00 85 1012.7
20260507062058 20 226 0.0 0.0 0.00 0.00 0.00 89 1012.7
20260507061603 20 226 0.0 0.0 0.00 0.00 0.00 90 1012.8
20260507060555 20 233 0.0 0.0 0.00 0.03 0.00 89 1012.9
20260507060101 20 233 0.0 0.0 0.00 0.03 0.00 89 1013.1
20260507055559 20 231 0.0 0.0 0.00 0.03 0.00 89 1013.2
20260507054600 20 231 0.0 0.0 0.00 0.03 0.00 88 1013.4
20260507053557 20 231 0.0 0.0 0.00 0.03 0.00 87 1013.5
20260507052558 20 233 0.0 0.0 0.00 0.03 0.00 88 1013.7
20260507052055 20 234 0.0 0.0 0.00 0.03 0.00 91 1013.8
20260507051602 19 234 0.0 0.0 0.00 0.03 0.00 91 1013.9
20260507051102 19 238 0.0 0.0 0.00 0.03 0.00 94 1014.1
20260507050055 19 241 0.0 0.0 0.00 0.03 0.00 95 1014.3
20260507045556 19 270 0.0 0.0 0.00 0.03 0.00 96 1014.4
20260507045058 19 270 0.0 0.0 0.00 0.03 0.00 96 1014.6
20260507044600 19 271 0.0 0.0 0.00 0.03 0.00 96 1014.5
20260507044100 19 271 0.0 0.0 0.00 0.03 0.00 96 1014.6
20260507043600 19 271 0.0 0.0 0.00 0.03 0.00 96 1014.8
20260507042559 19 286 0.0 0.0 0.00 0.03 0.00 97 1014.8
20260507042102 19 286 0.0 0.0 0.00 0.03 0.00 97 1014.9
20260507041056 20 286 0.0 0.0 0.00 0.03 0.00 97 1015.3
20260507040600 20 286 0.0 0.0 0.00 0.03 0.00 97 1015.4
20260507035600 20 286 0.0 0.0 0.00 0.03 0.00 98 1015.3
20260507035056 20 286 0.0 0.0 0.00 0.03 0.00 97 1015.4
20260507034056 20 286 0.0 0.0 0.00 0.03 0.00 98 1015.5
20260507033600 20 286 0.0 0.0 0.00 0.03 0.00 98 1015.5
20260507033056 19 286 0.0 0.0 0.00 0.03 0.00 98 1015.7
20260507032600 20 286 0.0 0.0 0.00 0.03 0.00 98 1015.7
20260507031602 20 286 0.0 0.0 0.00 0.03 0.00 98 1015.7
20260507031056 20 286 0.0 0.0 0.00 0.03 0.00 99 1015.8
20260507030556 19 286 0.0 0.0 0.00 0.03 0.00 98 1015.9
20260507025600 19 286 0.0 0.0 0.00 0.03 0.00 98 1016.1
20260507025058 19 305 0.0 0.0 0.00 0.03 0.00 98 1016.0
20260507024604 19 305 0.0 0.0 0.00 0.03 0.00 97 1016.1
20260507023558 20 305 0.0 0.0 0.00 0.03 0.00 97 1016.2
20260507022602 20 305 0.0 0.0 0.00 0.03 0.00 97 1016.3
20260507022055 20 305 0.0 0.0 0.00 0.03 0.00 97 1016.4
20260507021600 20 305 0.0 0.0 0.00 0.03 0.00 97 1016.4
20260507021106 20 305 0.0 0.0 0.00 0.03 0.00 97 1016.4
20260507020600 20 305 0.0 0.0 0.00 0.03 0.00 97 1016.5
20260507020100 20 305 0.0 0.0 0.00 0.03 0.00 97 1016.6
20260507015558 20 305 0.0 0.0 0.00 0.03 0.00 97 1016.6
20260507015055 20 305 0.0 0.0 0.00 0.03 0.00 97 1016.4
20260507014558 20 305 0.0 0.0 0.00 0.03 0.00 97 1016.4
20260507014058 20 305 0.0 0.0 0.00 0.03 0.00 97 1016.5
20260507013602 20 305 0.0 0.0 0.00 0.03 0.00 97 1016.5
20260507013055 20 305 0.0 0.0 0.00 0.03 0.00 96 1016.6
20260507012558 20 305 0.0 0.0 0.00 0.03 0.00 96 1016.6
20260507012058 20 305 0.0 0.0 0.00 0.03 0.00 96 1016.7
20260507011600 20 305 0.0 0.0 0.00 0.03 0.00 96 1016.8
20260507010558 20 305 0.0 0.0 0.00 0.03 0.00 96 1016.9
20260507010100 20 305 0.0 0.0 0.00 0.03 0.00 96 1016.8
20260507005602 20 305 0.0 0.0 0.00 0.03 0.00 96 1016.8
20260507005059 20 305 0.0 0.0 0.00 0.03 0.00 96 1016.7
20260507004559 20 305 0.0 0.0 0.00 0.03 0.00 97 1016.8
20260507004056 20 305 0.0 0.0 0.00 0.03 0.00 97 1016.9
20260507003055 20 305 0.0 0.0 0.00 0.03 0.00 97 1017.0
20260507002559 20 305 0.0 0.0 0.00 0.03 0.00 97 1016.9
20260507002105 20 305 0.0 0.0 0.00 0.03 0.00 97 1016.8
20260507001602 20 305 0.0 0.0 0.00 0.03 0.00 97 1016.8
20260507001059 20 305 0.0 0.0 0.00 0.03 0.00 96 1016.9
20260507000559 20 305 0.0 0.0 0.00 0.03 0.00 96 1016.9
20260507000058 20 305 0.0 0.0 0.00 0.03 0.00 96 1017.0
20260506235556 20 305 0.0 0.0 0.00 0.03 0.00 96 1017.0
20260506235058 20 305 0.0 0.0 0.00 0.03 0.00 96 1017.0
20260506234604 20 305 0.0 0.0 0.00 0.03 0.00 96 1016.9
20260506233555 20 305 0.0 0.0 0.00 0.03 0.00 96 1017.1
20260506233102 20 305 0.0 0.0 0.00 0.03 0.00 96 1017.1
20260506232055 20 305 0.0 0.0 0.00 0.03 0.00 96 1017.1
20260506231601 20 305 0.0 0.0 0.00 0.03 0.00 96 1017.1
20260506231056 20 305 0.0 0.0 0.00 0.03 0.00 96 1017.1
20260506230601 20 305 0.0 0.0 0.00 0.03 0.00 96 1017.0
20260506230106 20 305 0.0 0.0 0.00 0.03 0.00 96 1017.0
20260506225603 20 305 0.0 0.0 0.00 0.03 0.00 96 1017.0
20260506225059 20 305 0.0 0.0 0.00 0.03 0.00 95 1017.0
20260506224614 20 305 0.0 0.0 0.00 0.03 0.00 95 1017.1
20260506224101 20 305 0.0 0.0 0.00 0.03 0.00 95 1017.1
20260506223600 20 305 0.0 0.0 0.00 0.03 0.00 95 1017.1
20260506223109 20 305 0.0 0.0 0.00 0.03 0.00 95 1017.1
20260506222559 20 305 0.0 0.0 0.00 0.03 0.00 95 1017.0
20260506222100 20 305 0.0 0.0 0.00 0.03 0.00 95 1016.9
20260506221606 20 305 0.0 0.0 0.00 0.03 0.00 95 1016.9
20260506221103 20 305 0.0 0.0 0.00 0.03 0.00 95 1016.8
20260506220608 20 305 0.0 0.0 0.00 0.03 0.03 95 1016.9
20260506215101 21 305 0.0 0.0 0.00 0.03 0.03 95 1016.9
20260506214600 21 305 0.0 0.0 0.00 0.03 0.03 94 1016.9
20260506213559 21 305 0.0 0.0 0.00 0.03 0.03 94 1016.8
20260506213100 21 305 0.0 0.0 0.00 0.03 0.03 94 1016.9
20260506212558 21 305 0.0 0.0 0.00 0.03 0.03 94 1016.9
20260506212059 21 305 0.0 0.0 0.00 0.03 0.03 94 1016.9
20260506211600 21 305 0.0 0.0 0.00 0.03 0.03 95 1016.8
20260506211102 21 305 0.0 0.0 0.00 0.03 0.03 94 1016.9
20260506210602 21 305 0.0 0.0 0.00 0.03 0.03 94 1016.9
20260506210057 21 305 0.0 0.0 0.00 0.03 0.03 94 1017.0
20260506205104 21 305 0.0 0.0 0.00 0.03 0.03 94 1017.0
20260506204557 21 305 0.0 0.0 0.00 0.03 0.03 94 1016.9
20260506204058 21 305 0.0 0.0 0.00 0.03 0.03 94 1017.0
20260506203603 21 305 0.0 0.0 0.00 0.03 0.03 94 1017.0
20260506203058 21 305 0.0 0.0 0.00 0.03 0.03 94 1017.0
20260506202558 21 305 0.0 0.0 0.00 0.03 0.03 93 1017.0
20260506202108 21 305 0.0 0.0 0.00 0.03 0.03 94 1017.1
20260506201607 22 305 0.0 0.0 0.00 0.03 0.03 93 1017.2
20260506201102 22 305 0.0 0.0 0.00 0.03 0.03 94 1017.3
20260506200604 22 305 0.0 0.0 0.00 0.03 0.03 93 1017.3
20260506195603 22 305 0.0 0.0 0.00 0.03 0.03 92 1017.4
20260506195103 22 305 0.0 0.0 0.00 0.03 0.03 92 1017.4
20260506194921 22 305 0.0 0.0 0.00 0.03 0.03 92 1017.4
20260506194114 22 305 0.0 0.0 0.00 0.03 0.03 92 1017.4
20260506193603 22 305 0.0 0.0 0.00 0.03 0.03 91 1017.4